(153427) = 2001 QV212

Discovered at Anderson Mesa on 2001-08-23 by LONEOS.

Orbit

Orbit type: Main Belt

Note: WebGL enabled browser required.

epoch2023-09-13.0
epoch JD2460200.5
perihelion date2019-12-27.23094
perihelion JD2458844.73094
argument of perihelion (°)350.20598
ascending node (°)321.37682
inclination (°)2.76209
eccentricity0.1300894
perihelion distance (AU)2.0877998
Tisserand w.r.t. Jupiter3.5
ΔV w.r.t. Earth (km/sec)9.0
semimajor axis (AU)2.4000165
mean anomaly (°)359.39184
mean daily motion (°/day)0.26508340
aphelion distance (AU)2.712
period (years)3.72
P-vector [x]0.66382502
P-vector [y]-0.68287186
P-vector [z]-0.30499569
Q-vector [x]0.74728280
Q-vector [y]0.58922471
Q-vector [z]0.30721762
absolute magnitude17.07
phase slope0.15
uncertainty0
referenceMPEC 2024-A34
observations used440
oppositions15
arc length (days)8112
first opposition used2001
last opposition used2023
residual rms (arc-secs)0.75
perturbers coarse indicatorM-v
perturbers precise indicator003Ek
first observation date used2001-08-23.0
last observation date used2023-11-08.0
computer nameMPCLINUX
JD of orbit computation2456670.765825
perihelion JD uncertainty (days)1.2820E-04
argument of perihelion uncertainty (°)1.5082E-04
ascending node uncertainty (°)1.4766E-04
inclination uncertainty (°)7.5194E-06
eccentricity uncertainty 7.1014E-08
perihelion distance uncertainty (AU)1.7501E-07
Minimum Orbit Intersection Distances (in AU)
for orbit epoch: 2460200.5, reference: E2024-A34
Mercury1.65363
Venus1.36046
Earth1.07299
Mars0.68525
Jupiter2.51537
Saturn6.39765
Uranus15.7769
Neptune27.419

Observations

449 total observations over interval: 2001 08 23.36366 – 2023 11 08.223755
These data are available for download (format description).

Date (UT) J2000 RA J2000 Dec Magn Location Ref
2001 08 23.36366 23 40 03.63 -00 05 31.9 19.6 R 699 – Lowell Observatory-LONEOS MPS 34844
2001 08 23.37935 23 40 02.98 -00 05 35.7   699 – Lowell Observatory-LONEOS MPS 34844
2001 08 23.39505 23 40 02.31 -00 05 35.4   699 – Lowell Observatory-LONEOS MPS 34844
2001 08 23.41076 23 40 01.61 -00 05 38.4   699 – Lowell Observatory-LONEOS MPS 34844
2001 08 24.34498 23 39 22.63 -00 07 45.9 19.8   704 – Lincoln Laboratory ETS, New Mexico MPS 34844
2001 08 24.37118 23 39 21.47 -00 07 49.9 20.1   704 – Lincoln Laboratory ETS, New Mexico MPS 34844
2001 08 24.38429 23 39 20.91 -00 07 51.8 20.4   704 – Lincoln Laboratory ETS, New Mexico MPS 34844
2001 08 24.39743 23 39 20.31 -00 07 54.7 20.1   704 – Lincoln Laboratory ETS, New Mexico MPS 34844
2001 09 11.19361 23 24 12.56 -01 10 00.1 19.3 R 699 – Lowell Observatory-LONEOS MPS 43713
2001 09 11.21955 23 24 11.11 -01 10 06.3   699 – Lowell Observatory-LONEOS MPS 43713
2001 09 11.24548 23 24 09.61 -01 10 13.3   699 – Lowell Observatory-LONEOS MPS 43713
2001 09 11.27127 23 24 08.08 -01 10 19.4   699 – Lowell Observatory-LONEOS MPS 43713
2001 09 16.31095 23 19 28.68 -01 32 07.8 19.5   704 – Lincoln Laboratory ETS, New Mexico MPS 36096
2001 09 16.32784 23 19 27.71 -01 32 11.5 19.5   704 – Lincoln Laboratory ETS, New Mexico MPS 36096
2001 09 16.37726 23 19 24.87 -01 32 24.6 19.5   704 – Lincoln Laboratory ETS, New Mexico MPS 36096
2001 09 19.16160 23 16 54.91 -01 44 31.8 19.6 R 699 – Lowell Observatory-LONEOS MPS 43713
2001 09 19.18034 23 16 53.84 -01 44 36.8   699 – Lowell Observatory-LONEOS MPS 43713
2001 09 19.19911 23 16 52.78 -01 44 41.6   699 – Lowell Observatory-LONEOS MPS 43713
2001 09 19.21792 23 16 51.78 -01 44 46.7   699 – Lowell Observatory-LONEOS MPS 43713
2001 09 20.24788 23 15 57.29 -01 49 13.0 19.5   704 – Lincoln Laboratory ETS, New Mexico MPS 36096
2001 09 20.26203 23 15 56.48 -01 49 16.7 19.5   704 – Lincoln Laboratory ETS, New Mexico MPS 36096
2001 09 20.27618 23 15 55.72 -01 49 20.8 20.3   704 – Lincoln Laboratory ETS, New Mexico MPS 36096
2001 09 20.29032 23 15 54.93 -01 49 24.6 19.5   704 – Lincoln Laboratory ETS, New Mexico MPS 36096
2001 09 20.30446 23 15 54.15 -01 49 27.8 19.7   704 – Lincoln Laboratory ETS, New Mexico MPS 36096
2001 09 22.25156 23 14 13.69 -01 57 45.2 19.2   704 – Lincoln Laboratory ETS, New Mexico MPS 43713
2001 09 22.26572 23 14 12.85 -01 57 49.5 19.6   704 – Lincoln Laboratory ETS, New Mexico MPS 43713
2001 09 22.27989 23 14 12.15 -01 57 52.3 19.9   704 – Lincoln Laboratory ETS, New Mexico MPS 43714
2001 09 22.29407 23 14 11.38 -01 57 56.2 19.5   704 – Lincoln Laboratory ETS, New Mexico MPS 43714
2001 09 23.24826 23 13 23.41 -02 01 54.7 19.2   704 – Lincoln Laboratory ETS, New Mexico MPS 43714
2001 09 23.26243 23 13 22.66 -02 01 58.6 19.9   704 – Lincoln Laboratory ETS, New Mexico MPS 43714
2001 09 23.27658 23 13 21.93 -02 02 02.3 19.5   704 – Lincoln Laboratory ETS, New Mexico MPS 43714
2001 09 23.29075 23 13 21.16 -02 02 06.0 19.3   704 – Lincoln Laboratory ETS, New Mexico MPS 43714
2001 09 23.30491 23 13 20.42 -02 02 09.6 19.7   704 – Lincoln Laboratory ETS, New Mexico MPS 43714
2001 09 24.24836 23 12 33.86 -02 06 02.4 19.6   704 – Lincoln Laboratory ETS, New Mexico MPS 40328
2001 09 24.26320 23 12 33.17 -02 06 05.7 19.5   704 – Lincoln Laboratory ETS, New Mexico MPS 40328
2001 09 24.27802 23 12 32.41 -02 06 08.3 19.8   704 – Lincoln Laboratory ETS, New Mexico MPS 40328
2001 09 24.29284 23 12 31.65 -02 06 12.3 19.8   704 – Lincoln Laboratory ETS, New Mexico MPS 40328
2001 09 24.30780 23 12 30.83 -02 06 16.4 19.3   704 – Lincoln Laboratory ETS, New Mexico MPS 40328
2001 10 11.17753 23 01 58.68 -03 01 13.0 20.3   644 – Palomar Mountain/NEAT MPS 37850
2001 10 11.19865 23 01 58.13 -03 01 15.7 20.2   644 – Palomar Mountain/NEAT MPS 37850
2001 10 11.21968 23 01 57.58 -03 01 18.4 20.3   644 – Palomar Mountain/NEAT MPS 37850
2004 05 23.25506 14 10 19.62 -18 05 34.8 20.5 V 691 – Steward Observatory, Kitt Peak-Spacewatch MPS 155194
2004 05 23.28246 14 10 18.38 -18 05 27.3 20.7 V 691 – Steward Observatory, Kitt Peak-Spacewatch MPS 155194
2004 05 23.31471 14 10 16.92 -18 05 18.0 20.7 V 691 – Steward Observatory, Kitt Peak-Spacewatch MPS 155194
2005 10 01.30823 02 32 04.61 +19 20 04.0 20.5 V 291 – LPL/Spacewatch II MPS 155194
2005 10 01.32582 02 32 03.90 +19 20 02.7 20.6 V 291 – LPL/Spacewatch II MPS 155194
2005 10 01.33706 02 32 03.45 +19 20 01.9 20.5 V 291 – LPL/Spacewatch II MPS 155194
2005 10 10.36932 02 25 14.33 +19 01 35.2 20.3 V 691 – Steward Observatory, Kitt Peak-Spacewatch MPS 155194
2005 10 10.38666 02 25 13.39 +19 01 32.5 20.4 V 691 – Steward Observatory, Kitt Peak-Spacewatch MPS 155194
2005 10 10.40398 02 25 12.45 +19 01 29.3 20.5 V 691 – Steward Observatory, Kitt Peak-Spacewatch MPS 155194
2005 10 23.35382 02 12 48.06 +18 13 08.2 20.0 V 703 – Catalina Sky Survey MPS 275822
2005 10 23.36238 02 12 47.41 +18 13 05.1 20.0 V 703 – Catalina Sky Survey MPS 275822
2005 10 23.37095 02 12 46.94 +18 13 02.2 19.4 V 703 – Catalina Sky Survey MPS 275822
2005 10 23.37954 02 12 46.18 +18 13 00.6 19.2 V 703 – Catalina Sky Survey MPS 275822
2005 10 28.33111 02 07 42.60 +17 49 20.9 19.2 V 703 – Catalina Sky Survey MPS 149246
2005 10 28.33749 02 07 42.24 +17 49 20.4 19.0 V 703 – Catalina Sky Survey MPS 149246
2005 10 28.34385 02 07 41.88 +17 49 18.1 19.4 V 703 – Catalina Sky Survey MPS 149246
2005 10 28.35018 02 07 41.44 +17 49 15.5 19.2 V 703 – Catalina Sky Survey MPS 149246
2005 10 29.31808 02 06 42.44 +17 44 24.3 19.4 V 703 – Catalina Sky Survey MPS 149246
2005 10 29.32559 02 06 41.94 +17 44 21.6 19.2 V 703 – Catalina Sky Survey MPS 149246
2005 10 29.33319 02 06 41.47 +17 44 19.3 19.1 V 703 – Catalina Sky Survey MPS 149246
2005 10 29.34072 02 06 41.00 +17 44 17.0 19.5 V 703 – Catalina Sky Survey MPS 149246
2005 11 01.25430 02 03 45.29 +17 29 22.6 19.4   704 – Lincoln Laboratory ETS, New Mexico MPS 151860
2005 11 01.26648 02 03 44.58 +17 29 18.5 19.8   704 – Lincoln Laboratory ETS, New Mexico MPS 151860
2005 11 01.27876 02 03 43.87 +17 29 16.3 19.7   704 – Lincoln Laboratory ETS, New Mexico MPS 151860
2005 11 01.29117 02 03 43.11 +17 29 11.7 19.8   704 – Lincoln Laboratory ETS, New Mexico MPS 151860
2005 11 01.30336 02 03 42.38 +17 29 07.4 19.9   704 – Lincoln Laboratory ETS, New Mexico MPS 151860
2005 11 03.27625 02 01 46.05 +17 18 50.8 19.7 V G96 – Mt. Lemmon Survey MPS 151860
2005 11 03.28303 02 01 45.62 +17 18 48.7 19.9 V G96 – Mt. Lemmon Survey MPS 151860
2005 11 03.28970 02 01 45.19 +17 18 46.7 19.8 V G96 – Mt. Lemmon Survey MPS 151861
2005 11 03.29650 02 01 44.79 +17 18 44.3 19.8 V G96 – Mt. Lemmon Survey MPS 151861
2007 01 28.35946 09 53 02.86 +13 00 35.6 20.6 V G96 – Mt. Lemmon Survey MPS 197991
2007 01 28.36902 09 53 02.40 +13 00 37.9 20.8 V G96 – Mt. Lemmon Survey MPS 197991
2007 01 28.37869 09 53 01.82 +13 00 39.7 20.6 V G96 – Mt. Lemmon Survey MPS 197991
2007 01 28.38832 09 53 01.28 +13 00 41.7 20.6 V G96 – Mt. Lemmon Survey MPS 197991
2007 02 06.33802 09 44 32.64 +13 35 52.3 20.5 V G96 – Mt. Lemmon Survey MPS 198621
2007 02 06.34532 09 44 32.20 +13 35 54.3 20.1 V G96 – Mt. Lemmon Survey MPS 198621
2007 02 06.35260 09 44 31.70 +13 35 56.0 20.7 V G96 – Mt. Lemmon Survey MPS 198621
2007 02 06.35990 09 44 31.23 +13 35 57.6 20.6 V G96 – Mt. Lemmon Survey MPS 198621
2007 03 09.27427 09 15 51.51 +15 25 09.5 21.3 V G96 – Mt. Lemmon Survey MPS 202287
2007 03 09.28029 09 15 51.22 +15 25 10.3 21.2 V G96 – Mt. Lemmon Survey MPS 202287
2007 03 09.28631 09 15 50.97 +15 25 11.2 21.3 V G96 – Mt. Lemmon Survey MPS 202287
2007 03 09.29235 09 15 50.72 +15 25 12.2 20.6 V G96 – Mt. Lemmon Survey MPS 202287
2007 03 25.23575 09 08 04.20 +15 48 02.9 20.9 V G96 – Mt. Lemmon Survey MPS 205493
2007 03 25.24270 09 08 04.09 +15 48 02.7 20.7 V G96 – Mt. Lemmon Survey MPS 205493
2007 03 25.24963 09 08 03.98 +15 48 03.0 21.5 V G96 – Mt. Lemmon Survey MPS 205493
2007 03 25.25879 09 08 03.80 +15 48 03.8 21.1 V G96 – Mt. Lemmon Survey MPS 205493
2007 04 15.16578 09 08 25.36 +15 34 46.3 21.6 V G96 – Mt. Lemmon Survey MPS 207928
2007 04 15.17245 09 08 25.51 +15 34 45.7 20.9 V G96 – Mt. Lemmon Survey MPS 207928
2007 04 15.17914 09 08 25.58 +15 34 45.0 20.2 V G96 – Mt. Lemmon Survey MPS 207928
